Location: Barruelo
(41.2448°N, 3.8231°W)
Time: 03:52:55
(UTC+00:00)

Aureole 1 Rocket - Pass Details

Date: 11 December 2025
Orbit: 372 x 1168 km, 73.9° (Epoch: 13 January)

Event Time Altitude Azimuth Distance (km) Brightness Sun altitude
Rises 18:55:57 0° 217° (SW) 2,700 7.1 -23.6°
Reaches altitude 10° 18:57:59 10° 224° (SW) 1,917 6.3 -23.9°
Maximum altitude 19:02:06 44° 297° (WNW) 955 4.3 -24.7°
Enters shadow 19:05:25 20° 0° (N) 1,739 5.2 -25.3°
